Location: Weatherford
(35.5260°N, 98.7070°W)
Time: 14:13:53
(UTC-05:00)

Amateur Radio Satellites - All Passes

Search period start: 30 July 2014 13:43
Search period end: 31 July 2014 13:43
Location: Weatherford, 35.5260°N, 98.7070°W

Satellite Date Start Highest point End Downlink Frequencies (MHz)
Time Altitude Azimuth
Uribyol 2 30 Jul 13:49:02 13:52:27 18° 65° (ENE) 13:55:52 436.500 FM
AO-27 30 Jul 13:49:41 13:53:03 18° 65° (ENE) 13:56:26 436.795 MHz FM
SO-50 30 Jul 13:57:13 14:00:44 23° 310° (NW) 14:04:20 436.795 FM
UOSAT-12 30 Jul 14:08:12 14:12:19 34° 113° (ESE) 14:16:31 437.025 FM, 437.400 FM
Oscar 19 30 Jul 14:14:25 14:19:28 67° 74° (ENE) 14:24:34 437.125 CW, 437.150 USB
AO-Echo 30 Jul 14:18:31 14:23:15 34° 70° (ENE) 14:28:01 ?
Gurwin Techsat 1B 30 Jul 14:21:50 14:24:31 14° 63° (ENE) 14:27:12 435.225 FM
KITSAT 1 30 Jul 14:30:33 14:36:27 21° 43° (NE) 14:42:18 435.175 FM
Oscar 16 30 Jul 14:43:09 14:48:11 60° 259° (W) 14:53:15 437.025 USB, Beacon 2401.1428
ITAMSAT 1 30 Jul 15:07:11 15:12:24 82° 257° (WSW) 15:17:39 435.822 SSB
JAS-1B 30 Jul 15:16:55 15:25:40 74° 72° (ENE) 15:35:29 435.800 - 435.900 CW/SSB
Uribyol 2 30 Jul 15:26:29 15:31:30 49° 260° (W) 15:36:32 436.500 FM
AO-27 30 Jul 15:27:03 15:32:07 51° 260° (W) 15:37:12 436.795 MHz FM
TMSAT-1 30 Jul 15:33:18 15:38:24 50° 73° (ENE) 15:43:31 436.925 FM
AO-7 30 Jul 15:38:28 15:44:50 25° 58° (ENE) 15:51:11 29.400 - 29.500 MHz
RS-15 30 Jul 15:44:00 15:54:05 39° 313° (NW) 16:04:06 29.354 - 29.394 USB, Beacon 29.352 USB
Saudisat 1A 30 Jul 15:46:28 15:48:11 12° 45° (NE) 15:49:54 436.775 MHz
UOSAT-12 30 Jul 15:48:46 15:52:30 24° 309° (NW) 15:56:19 437.025 FM, 437.400 FM
Oscar 19 30 Jul 15:57:31 15:59:14 12° 269° (W) 16:00:56 437.125 CW, 437.150 USB
AO-Echo 30 Jul 15:57:37 16:01:59 26° 265° (W) 16:06:23 ?
Gurwin Techsat 1B 30 Jul 15:58:36 16:03:52 66° 258° (WSW) 16:09:10 435.225 FM
Uosat F 30 Jul 16:17:33 16:21:49 29° 69° (ENE) 16:26:06 435.120 FM
KITSAT 1 30 Jul 16:24:45 16:32:52 87° 244° (WSW) 16:40:55 435.175 FM
JAS-2 30 Jul 17:07:32 17:09:15 11° 58° (ENE) 17:10:55 435.800 - 435.900 CW/SSB, 435.910 FM
JAS-1B 30 Jul 17:10:08 17:16:55 24° 271° (W) 17:24:19 435.800 - 435.900 CW/SSB
TMSAT-1 30 Jul 17:15:10 17:18:33 17° 267° (W) 17:21:57 436.925 FM
OPAL 30 Jul 17:17:30 17:22:20 43° 101° (ESE) 17:27:12 ?
Saudisat 1A 30 Jul 17:23:53 17:28:17 76° 242° (WSW) 17:32:39 436.775 MHz
AO-7 30 Jul 17:28:33 17:36:51 70° 255° (WSW) 17:45:13 29.400 - 29.500 MHz
Hamsat 30 Jul 17:37:32 17:37:54 10° 65° (ENE) 17:38:17 145.90 MHz
Uosat F 30 Jul 17:56:12 18:00:30 28° 263° (W) 18:04:50 435.120 FM
RS-15 30 Jul 18:06:06 18:10:56 13° 345° (NNW) 18:15:48 29.354 - 29.394 USB, Beacon 29.352 USB
KITSAT 1 30 Jul 18:23:13 18:27:05 14° 260° (W) 18:30:57 435.175 FM
JAS-2 30 Jul 18:45:21 18:53:04 65° 73° (ENE) 19:00:17 435.800 - 435.900 CW/SSB, 435.910 FM
OPAL 30 Jul 18:57:12 19:00:54 21° 296° (WNW) 19:04:37 ?
Hamsat 30 Jul 19:09:13 19:13:19 58° 260° (W) 19:17:28 145.90 MHz
STRAND 1 30 Jul 19:43:50 19:48:23 32° 97° (E) 19:52:53 ?
SO-67 30 Jul 19:56:16 19:59:42 68° 77° (ENE) 20:03:09 435.3500 MHz FM
HO-68 30 Jul 20:10:02 20:13:52 15° 57° (ENE) 20:17:41 435.675 MHz FM
RS-15 30 Jul 20:23:47 20:30:13 17° 24° (NNE) 20:36:42 29.354 - 29.394 USB, Beacon 29.352 USB
JAS-2 30 Jul 20:32:24 20:38:18 23° 266° (W) 20:44:01 435.800 - 435.900 CW/SSB, 435.910 FM
SO-50 30 Jul 20:50:59 20:54:09 17° 48° (NE) 20:57:20 436.795 FM
MaSat-1 30 Jul 21:11:10 21:14:53 44° 107° (ESE) 21:19:14 437.345 MHz
STRAND 1 30 Jul 21:23:15 21:27:23 26° 292° (WNW) 21:31:31 ?
UKube-1 30 Jul 21:32:47 21:36:38 32° 71° (ENE) 21:40:31 145.840 MHz, 145.915 MHz
HO-68 30 Jul 21:53:23 22:00:34 89° 74° (ENE) 22:07:46 435.675 MHz FM
Oscar 11 30 Jul 22:15:32 22:19:38 46° 74° (ENE) 22:23:46 145.825 FM, Beacon 2401.500 USB
SO-50 30 Jul 22:30:21 22:35:02 56° 244° (WSW) 22:39:46 436.795 FM
RS-15 30 Jul 22:35:13 22:45:59 53° 53° (NE) 22:57:04 29.354 - 29.394 USB, Beacon 29.352 USB
UOSAT-12 30 Jul 22:41:21 22:44:16 16° 47° (NE) 22:47:10 437.025 FM, 437.400 FM
AO-40 30 Jul 22:41:23 04:43:24 44° 182° (S) 10:42:02 Beacon 2401.320
FUNcube-1 30 Jul 22:42:49 22:46:40 33° 72° (ENE) 22:50:28 145.950 - 145.970 MHz USB
MaSat-1 30 Jul 22:49:54 22:52:34 16° 308° (NW) 22:55:28 437.345 MHz
UKube-1 30 Jul 23:09:45 23:12:52 19° 265° (W) 23:15:59 145.840 MHz, 145.915 MHz
ISS 30 Jul 23:24:47 23:28:07 78° 319° (NW) 23:31:27 145.800 FM
HO-68 30 Jul 23:45:53 23:49:00 13° 269° (W) 23:52:08 435.675 MHz FM
Oscar 11 30 Jul 23:54:16 23:56:02 12° 268° (W) 23:57:50 145.825 FM, Beacon 2401.500 USB
UOSAT-12 31 Jul 00:20:10 00:24:49 60° 244° (WSW) 00:29:23 437.025 FM, 437.400 FM
FUNcube-1 31 Jul 00:20:14 00:23:06 17° 265° (W) 00:25:57 145.950 - 145.970 MHz USB
Sapphire 31 Jul 00:23:46 00:28:36 35° 109° (ESE) 00:33:29 437.095 MHz 1200 baud AX-25 AFSK
RS-15 31 Jul 00:47:57 00:58:01 42° 252° (WSW) 01:08:29 29.354 - 29.394 USB, Beacon 29.352 USB
PCSat 31 Jul 00:56:17 01:01:40 78° 115° (ESE) 01:07:06 145.825 MHz
ISS 31 Jul 01:03:51 01:05:18 12° 336° (NNW) 01:06:46 145.800 FM
Oscar 10/S400 31 Jul 01:10:20 01:40:58 74° 182° (S) 11:15:41 145.825 - 145.975 CW/USB, Beacon 145.810 USB
Sapphire 31 Jul 02:07:25 02:12:02 28° 305° (NW) 02:16:41 437.095 MHz 1200 baud AX-25 AFSK
Oscar 19 31 Jul 02:29:28 02:34:00 30° 97° (E) 02:38:31 437.125 CW, 437.150 USB
AO-Echo 31 Jul 02:31:00 02:33:07 13° 91° (E) 02:35:12 ?
PCSat 31 Jul 02:42:44 02:45:42 15° 312° (NW) 02:48:42 145.825 MHz
Oscar 16 31 Jul 02:57:47 03:02:55 62° 101° (ESE) 03:08:02 437.025 USB, Beacon 2401.1428
JAS-1B 31 Jul 03:08:50 03:16:12 28° 91° (E) 03:22:38 435.800 - 435.900 CW/SSB
ITAMSAT 1 31 Jul 03:23:22 03:28:20 45° 100° (E) 03:33:15 435.822 SSB
Uribyol 2 31 Jul 03:42:06 03:47:16 76° 103° (ESE) 03:52:25 436.500 FM
AO-27 31 Jul 03:43:02 03:48:13 74° 103° (ESE) 03:53:22 436.795 MHz FM
TMSAT-1 31 Jul 03:52:45 03:57:06 25° 96° (E) 04:01:24 436.925 FM
PANSAT 31 Jul 03:56:27 03:58:46 15° 162° (SSE) 04:01:05 not established
AO-Echo 31 Jul 04:07:22 04:12:17 58° 286° (WNW) 04:17:01 ?
Oscar 19 31 Jul 04:08:52 04:13:12 28° 291° (WNW) 04:17:32 437.125 CW, 437.150 USB
Gurwin Techsat 1B 31 Jul 04:17:54 04:23:11 65° 101° (ESE) 04:28:26 435.225 FM
OPAL 31 Jul 04:29:42 04:34:30 54° 71° (ENE) 04:39:19 ?
Uosat F 31 Jul 04:31:18 04:31:53 10° 91° (E) 04:32:28 435.120 FM
Oscar 16 31 Jul 04:39:01 04:41:42 14° 296° (WNW) 04:44:23 437.025 USB, Beacon 2401.1428
KITSAT 1 31 Jul 04:57:47 05:02:40 17° 102° (ESE) 05:07:31 435.175 FM
JAS-1B 31 Jul 04:58:19 05:07:13 57° 291° (WNW) 05:14:45 435.800 - 435.900 CW/SSB
ITAMSAT 1 31 Jul 05:03:53 05:07:26 19° 294° (WNW) 05:11:00 435.822 SSB
Uribyol 2 31 Jul 05:24:18 05:26:03 12° 298° (WNW) 05:27:47 436.500 FM
AO-27 31 Jul 05:25:08 05:27:03 12° 298° (WNW) 05:28:58 436.795 MHz FM
TMSAT-1 31 Jul 05:32:17 05:37:00 34° 290° (WNW) 05:41:43 436.925 FM
AO-7 31 Jul 05:33:42 05:41:44 50° 102° (ESE) 05:49:41 29.400 - 29.500 MHz
PANSAT 31 Jul 05:35:08 05:38:26 27° 175° (S) 05:41:45 not established
ISS 31 Jul 05:56:10 05:59:14 32° 36° (NE) 06:02:17 145.800 FM
Gurwin Techsat 1B 31 Jul 05:59:48 06:02:33 14° 297° (WNW) 06:05:19 435.225 FM
Uosat F 31 Jul 06:06:07 06:11:07 72° 285° (WNW) 06:16:05 435.120 FM
OPAL 31 Jul 06:11:07 06:13:40 14° 265° (W) 06:16:14 ?
KITSAT 1 31 Jul 06:48:56 06:57:03 83° 298° (WNW) 07:05:12 435.175 FM
JAS-1B 31 Jul 06:53:06 06:55:26 11° 312° (NW) 06:57:42 435.800 - 435.900 CW/SSB
STRAND 1 31 Jul 06:56:52 07:01:29 35° 70° (ENE) 07:06:07 ?
Hamsat 31 Jul 06:58:07 07:01:56 30° 97° (E) 07:05:45 145.90 MHz
MaSat-1 31 Jul 07:09:01 07:14:15 63° 65° (ENE) 07:19:05 437.345 MHz
PANSAT 31 Jul 07:14:58 07:18:12 25° 188° (S) 07:21:26 not established
AO-7 31 Jul 07:26:59 07:34:09 34° 299° (WNW) 07:41:18 29.400 - 29.500 MHz
Saudisat 1A 31 Jul 07:27:22 07:31:41 58° 116° (ESE) 07:36:02 436.775 MHz
ISS 31 Jul 07:33:10 07:35:48 21° 230° (SW) 07:38:25 145.800 FM
JAS-2 31 Jul 07:44:37 07:50:19 68° 101° (E) 07:55:32 435.800 - 435.900 CW/SSB, 435.910 FM
Hamsat 31 Jul 08:34:32 08:37:41 20° 291° (WNW) 08:40:50 145.90 MHz
STRAND 1 31 Jul 08:36:37 08:40:41 24° 264° (W) 08:44:47 ?
KITSAT 1 31 Jul 08:48:14 08:53:41 19° 319° (NW) 08:59:09 435.175 FM
MaSat-1 31 Jul 08:48:27 08:50:51 13° 261° (W) 08:53:11 437.345 MHz
SO-67 31 Jul 08:56:02 08:59:28 61° 283° (WNW) 09:02:53 435.3500 MHz FM
PANSAT 31 Jul 08:56:03 08:57:50 13° 200° (SSW) 08:59:37 not established
Saudisat 1A 31 Jul 09:09:06 09:11:37 15° 313° (NW) 09:14:09 436.775 MHz
Sapphire 31 Jul 09:15:23 09:18:53 17° 49° (NE) 09:22:22 437.095 MHz 1200 baud AX-25 AFSK
HO-68 31 Jul 09:26:04 09:30:55 19° 93° (E) 09:35:44 435.675 MHz FM
JAS-2 31 Jul 09:31:53 09:34:36 14° 300° (WNW) 09:37:13 435.800 - 435.900 CW/SSB, 435.910 FM
PCSat 31 Jul 09:47:35 09:52:28 33° 56° (NE) 09:57:19 145.825 MHz
Oscar 11 31 Jul 10:08:52 10:09:49 11° 92° (E) 10:10:46 145.825 FM, Beacon 2401.500 USB
Sapphire 31 Jul 10:57:24 11:02:46 66° 247° (WSW) 11:08:07 437.095 MHz 1200 baud AX-25 AFSK
UKube-1 31 Jul 10:59:34 11:03:56 89° 284° (WNW) 11:08:16 145.840 MHz, 145.915 MHz
HO-68 31 Jul 11:12:00 11:19:05 67° 289° (WNW) 11:26:07 435.675 MHz FM
PCSat 31 Jul 11:31:07 11:35:45 30° 252° (WSW) 11:40:22 145.825 MHz
Oscar 11 31 Jul 11:42:02 11:46:17 54° 285° (WNW) 11:50:31 145.825 FM, Beacon 2401.500 USB
FUNcube-1 31 Jul 12:10:34 12:14:45 74° 284° (WNW) 12:19:00 145.950 - 145.970 MHz USB
SO-50 31 Jul 12:42:23 12:46:49 82° 300° (WNW) 12:51:22 436.795 FM
RS-15 31 Jul 12:55:18 13:05:35 44° 108° (ESE) 13:15:36 29.354 - 29.394 USB, Beacon 29.352 USB
HO-68 31 Jul 13:03:59 13:05:27 11° 306° (NW) 13:06:55 435.675 MHz FM
